| time (UTC) | temp F | wind direction | speed MPH | gust MPH | rain 1hr in | rain 24hr in | rain mn in | humidity % | barometer mb |
| 20260903174346 | 59 | 248 | 2.0 | 9.0 | 0.00 | 0.00 | 0.08 | 74 | 1008.1 |
| 20260903173837 | 60 | 293 | 4.0 | 13.0 | 0.00 | 0.00 | 0.08 | 73 | 1007.9 |
| 20260903173326 | 59 | 113 | 2.0 | 13.0 | 0.00 | 0.00 | 0.08 | 73 | 1007.8 |
| 20260903172816 | 60 | 225 | 2.0 | 8.0 | 0.00 | 0.00 | 0.08 | 71 | 1007.9 |
| 20260903172306 | 59 | 135 | 2.0 | 8.0 | 0.00 | 0.00 | 0.08 | 72 | 1007.9 |
| 20260903171755 | 58 | 180 | 2.0 | 9.0 | 0.00 | 0.00 | 0.08 | 75 | 1007.9 |
| 20260903170735 | 57 | 23 | 4.0 | 7.0 | 0.00 | 0.00 | 0.08 | 76 | 1007.9 |
| 20260903165720 | 57 | 158 | 2.0 | 11.0 | 0.00 | 0.00 | 0.08 | 77 | 1008.1 |
| 20260903165205 | 57 | 248 | 4.0 | 11.0 | 0.00 | 0.00 | 0.08 | 76 | 1008.0 |
| 20260903164655 | 58 | 203 | 2.0 | 8.0 | 0.00 | 0.00 | 0.08 | 76 | 1008.1 |
| 20260903164148 | 57 | 203 | 3.0 | 7.0 | 0.00 | 0.00 | 0.08 | 76 | 1008.1 |
| 20260903163126 | 59 | 158 | 4.0 | 8.0 | 0.00 | 0.00 | 0.08 | 73 | 1008.1 |
| 20260903162614 | 59 | 203 | 1.0 | 9.0 | 0.00 | 0.00 | 0.08 | 75 | 1008.2 |
| 20260903160534 | 59 | 225 | 3.0 | 8.0 | 0.00 | 0.00 | 0.08 | 75 | 1007.9 |
| 20260903160023 | 60 | 248 | 4.0 | 8.0 | 0.00 | 0.00 | 0.08 | 73 | 1008.4 |
| 20260903155513 | 62 | 225 | 1.0 | 6.0 | 0.00 | 0.00 | 0.08 | 70 | 1008.4 |
| 20260903155003 | 65 | 158 | 2.0 | 4.0 | 0.00 | 0.00 | 0.08 | 64 | 1008.5 |
| 20260903154452 | 64 | 180 | 1.0 | 6.0 | 0.00 | 0.00 | 0.08 | 60 | 1008.8 |
| 20260903153943 | 63 | 225 | 2.0 | 6.0 | 0.00 | 0.00 | 0.08 | 63 | 1008.5 |
| 20260903153432 | 63 | 23 | 2.0 | 6.0 | 0.00 | 0.00 | 0.08 | 62 | 1008.5 |
| 20260903152923 | 64 | 270 | 1.0 | 7.0 | 0.00 | 0.00 | 0.08 | 61 | 1008.5 |
| 20260903152412 | 64 | 45 | 1.0 | 7.0 | 0.00 | 0.00 | 0.08 | 61 | 1008.3 |
| 20260903151902 | 63 | 113 | 1.0 | 6.0 | 0.00 | 0.00 | 0.08 | 63 | 1008.0 |
| 20260903151352 | 64 | 90 | 1.0 | 6.0 | 0.00 | 0.00 | 0.08 | 60 | 1008.2 |
| 20260903150842 | 63 | 0 | 2.0 | 4.0 | 0.00 | 0.00 | 0.08 | 62 | 1008.2 |
| 20260903150331 | 63 | 68 | 2.0 | 7.0 | 0.00 | 0.00 | 0.08 | 64 | 1008.2 |
| 20260903145823 | 63 | 68 | 2.0 | 7.0 | 0.00 | 0.00 | 0.08 | 62 | 1008.2 |
| 20260903145311 | 64 | 68 | 2.0 | 6.0 | 0.00 | 0.00 | 0.08 | 60 | 1008.3 |
| 20260903144801 | 63 | 113 | 2.0 | 11.0 | 0.00 | 0.00 | 0.08 | 62 | 1008.1 |
| 20260903144251 | 62 | 45 | 2.0 | 11.0 | 0.00 | 0.00 | 0.08 | 65 | 1008.3 |
| 20260903143231 | 62 | 90 | 2.0 | 7.0 | 0.00 | 0.00 | 0.08 | 66 | 1008.4 |
| 20260903142211 | 61 | 23 | 2.0 | 6.0 | 0.00 | 0.00 | 0.08 | 67 | 1008.6 |
| 20260903141705 | 62 | 113 | 2.0 | 7.0 | 0.00 | 0.00 | 0.08 | 69 | 1008.5 |
| 20260903141151 | 61 | 45 | 2.0 | 7.0 | 0.00 | 0.00 | 0.08 | 69 | 1008.6 |
| 20260903140640 | 61 | 135 | 2.0 | 6.0 | 0.00 | 0.00 | 0.08 | 70 | 1008.5 |
| 20260903140130 | 61 | 180 | 1.0 | 6.0 | 0.00 | 0.00 | 0.08 | 72 | 1008.3 |
| 20260903135620 | 61 | 0 | 2.0 | 6.0 | 0.00 | 0.00 | 0.08 | 73 | 1008.2 |
| 20260903135109 | 61 | 23 | 2.0 | 6.0 | 0.00 | 0.00 | 0.08 | 74 | 1008.0 |
| 20260903134600 | 60 | 90 | 1.0 | 6.0 | 0.00 | 0.00 | 0.08 | 75 | 1008.1 |
| 20260903134050 | 60 | 225 | 2.0 | 4.0 | 0.00 | 0.00 | 0.08 | 75 | 1008.2 |
| 20260903133540 | 60 | 113 | 2.0 | 4.0 | 0.00 | 0.00 | 0.08 | 76 | 1008.3 |
| 20260903133030 | 60 | 68 | 2.0 | 4.0 | 0.00 | 0.00 | 0.08 | 75 | 1008.1 |
| 20260903132008 | 59 | 68 | 2.0 | 6.0 | 0.00 | 0.00 | 0.08 | 77 | 1008.3 |
| 20260903131458 | 59 | 68 | 2.0 | 6.0 | 0.00 | 0.00 | 0.08 | 78 | 1008.3 |
| 20260903130949 | 59 | 293 | 1.0 | 6.0 | 0.00 | 0.00 | 0.08 | 78 | 1008.2 |
| 20260903130438 | 58 | 158 | 1.0 | 6.0 | 0.00 | 0.00 | 0.08 | 79 | 1008.4 |
| 20260903125932 | 57 | 68 | 1.0 | 4.0 | 0.00 | 0.00 | 0.08 | 81 | 1008.1 |
| 20260903125418 | 56 | 45 | 2.0 | 4.0 | 0.00 | 0.00 | 0.08 | 81 | 1008.0 |
| 20260903124910 | 57 | 90 | 1.0 | 4.0 | 0.00 | 0.00 | 0.08 | 80 | 1008.1 |
| 20260903124357 | 58 | 113 | 2.0 | 4.0 | 0.00 | 0.00 | 0.08 | 79 | 1007.9 |
| 20260903123338 | 56 | 45 | 2.0 | 7.0 | 0.00 | 0.00 | 0.08 | 81 | 1008.1 |
| 20260903122828 | 57 | 90 | 1.0 | 4.0 | 0.00 | 0.00 | 0.08 | 81 | 1008.1 |
| 20260903122317 | 56 | 68 | 1.0 | 4.0 | 0.00 | 0.00 | 0.08 | 83 | 1007.9 |
| 20260903121807 | 55 | 158 | 2.0 | 4.0 | 0.00 | 0.00 | 0.08 | 86 | 1007.8 |
| 20260903121257 | 55 | 68 | 2.0 | 4.0 | 0.00 | 0.00 | 0.08 | 88 | 1007.8 |
| 20260903120746 | 53 | 45 | 2.0 | 6.0 | 0.00 | 0.00 | 0.08 | 89 | 1008.1 |
| 20260903120236 | 53 | 90 | 2.0 | 6.0 | 0.00 | 0.00 | 0.08 | 91 | 1008.2 |
| 20260903115726 | 53 | 68 | 2.0 | 4.0 | 0.00 | 0.00 | 0.08 | 92 | 1008.5 |
| 20260903115216 | 52 | 45 | 2.0 | 4.0 | 0.00 | 0.00 | 0.08 | 92 | 1008.5 |
| 20260903114156 | 51 | 23 | 2.0 | 4.0 | 0.00 | 0.00 | 0.08 | 93 | 1008.0 |
| 20260903113646 | 51 | 68 | 2.0 | 4.0 | 0.00 | 0.00 | 0.08 | 94 | 1007.9 |
| 20260903112625 | 51 | 68 | 2.0 | 4.0 | 0.00 | 0.00 | 0.08 | 94 | 1007.8 |
| 20260903112116 | 51 | 45 | 1.0 | 4.0 | 0.00 | 0.00 | 0.08 | 94 | 1007.5 |
| 20260903111055 | 51 | 68 | 0.0 | 4.0 | 0.00 | 0.00 | 0.08 | 94 | 1007.1 |
| 20260903110547 | 50 | 68 | 1.0 | 4.0 | 0.00 | 0.00 | 0.08 | 94 | 1007.0 |
| 20260903110035 | 50 | 68 | 1.0 | 4.0 | 0.00 | 0.00 | 0.08 | 94 | 1006.7 |
| 20260903105525 | 51 | 45 | 1.0 | 4.0 | 0.00 | 0.00 | 0.08 | 94 | 1007.0 |
| 20260903105014 | 51 | 45 | 1.0 | 4.0 | 0.00 | 0.00 | 0.08 | 94 | 1007.0 |
| 20260903103954 | 50 | 68 | 1.0 | 2.0 | 0.00 | 0.00 | 0.08 | 94 | 1006.1 |
| 20260903102934 | 50 | 68 | 1.0 | 2.0 | 0.00 | 0.00 | 0.08 | 94 | 1007.0 |
| 20260903102423 | 51 | 0 | 0.0 | 2.0 | 0.00 | 0.00 | 0.08 | 94 | 1006.8 |
| 20260903101913 | 51 | 68 | 1.0 | 2.0 | 0.00 | 0.00 | 0.08 | 94 | 1006.5 |
| 20260903101403 | 51 | 0 | 1.0 | 2.0 | 0.00 | 0.00 | 0.08 | 93 | 1006.4 |
| 20260903100854 | 51 | 68 | 1.0 | 2.0 | 0.00 | 0.00 | 0.08 | 93 | 1006.6 |
| 20260903100344 | 51 | 68 | 0.0 | 2.0 | 0.00 | 0.00 | 0.08 | 93 | 1006.2 |
| 20260903095833 | 51 | 68 | 1.0 | 2.0 | 0.00 | 0.00 | 0.08 | 93 | 1006.3 |
| 20260903095323 | 51 | 315 | 0.0 | 4.0 | 0.00 | 0.00 | 0.08 | 92 | 1006.2 |
| 20260903094814 | 52 | 45 | 1.0 | 4.0 | 0.00 | 0.00 | 0.08 | 92 | 1006.3 |
| 20260903093753 | 52 | 90 | 2.0 | 4.0 | 0.00 | 0.00 | 0.08 | 92 | 1006.8 |
| 20260903093242 | 52 | 68 | 1.0 | 4.0 | 0.00 | 0.00 | 0.08 | 92 | 1006.3 |
| 20260903092222 | 52 | 68 | 2.0 | 4.0 | 0.00 | 0.00 | 0.08 | 92 | 1006.5 |
| 20260903091718 | 52 | 45 | 2.0 | 6.0 | 0.00 | 0.00 | 0.08 | 92 | 1005.4 |
| 20260903091203 | 52 | 68 | 2.0 | 6.0 | 0.00 | 0.00 | 0.08 | 92 | 1006.3 |
| 20260903090653 | 52 | 68 | 1.0 | 4.0 | 0.00 | 0.00 | 0.08 | 91 | 1005.8 |
| 20260903090141 | 52 | 45 | 1.0 | 4.0 | 0.00 | 0.00 | 0.08 | 91 | 1005.6 |
| 20260903085631 | 52 | 68 | 2.0 | 4.0 | 0.00 | 0.00 | 0.08 | 91 | 1005.3 |
| 20260903084612 | 52 | 45 | 1.0 | 7.0 | 0.00 | 0.00 | 0.08 | 91 | 1005.8 |
| 20260903084102 | 52 | 45 | 2.0 | 6.0 | 0.00 | 0.00 | 0.08 | 91 | 1006.3 |
| 20260903083556 | 52 | 113 | 2.0 | 6.0 | 0.00 | 0.00 | 0.08 | 92 | 1006.6 |
| 20260903083048 | 52 | 90 | 2.0 | 7.0 | 0.00 | 0.00 | 0.08 | 92 | 1006.7 |
| 20260903082531 | 52 | 45 | 3.0 | 9.0 | 0.00 | 0.00 | 0.08 | 92 | 1006.9 |
| 20260903082020 | 52 | 68 | 2.0 | 9.0 | 0.00 | 0.00 | 0.08 | 93 | 1007.1 |
| 20260903081511 | 52 | 315 | 2.0 | 6.0 | 0.00 | 0.00 | 0.08 | 93 | 1007.0 |
| 20260903081000 | 52 | 90 | 2.0 | 6.0 | 0.00 | 0.00 | 0.08 | 94 | 1006.5 |
| 20260903080450 | 52 | 45 | 2.0 | 6.0 | 0.00 | 0.00 | 0.08 | 94 | 1006.6 |
| 20260903075430 | 52 | 68 | 2.0 | 4.0 | 0.00 | 0.00 | 0.08 | 94 | 1005.9 |
| 20260903074920 | 52 | 0 | 2.0 | 4.0 | 0.00 | 0.00 | 0.08 | 94 | 1006.2 |
| 20260903074409 | 52 | 45 | 2.0 | 4.0 | 0.00 | 0.00 | 0.08 | 94 | 1006.0 |
| 20260903073904 | 52 | 68 | 3.0 | 4.0 | 0.00 | 0.00 | 0.08 | 94 | 1005.4 |
| 20260903073349 | 52 | 90 | 1.0 | 4.0 | 0.00 | 0.00 | 0.08 | 94 | 1005.3 |
| 20260903072840 | 52 | 23 | 2.0 | 4.0 | 0.00 | 0.00 | 0.08 | 94 | 1005.8 |
| 20260903072328 | 52 | 90 | 2.0 | 4.0 | 0.00 | 0.00 | 0.08 | 94 | 1005.8 |
| 20260903071820 | 52 | 68 | 2.0 | 4.0 | 0.00 | 0.00 | 0.08 | 94 | 1005.5 |
| 20260903070758 | 53 | 68 | 2.0 | 4.0 | 0.00 | 0.00 | 0.08 | 94 | 1006.2 |
| 20260903070248 | 53 | 68 | 2.0 | 4.0 | 0.00 | 0.00 | 0.08 | 94 | 1006.6 |
| 20260903065739 | 53 | 90 | 1.0 | 4.0 | 0.00 | 0.00 | 0.08 | 94 | 1006.7 |
| 20260903065228 | 53 | 45 | 2.0 | 6.0 | 0.00 | 0.00 | 0.08 | 94 | 1006.6 |
| 20260903064208 | 53 | 45 | 2.0 | 8.0 | 0.00 | 0.00 | 0.08 | 94 | 1006.5 |
| 20260903062637 | 53 | 45 | 2.0 | 7.0 | 0.00 | 0.00 | 0.08 | 94 | 1006.7 |
| 20260903062128 | 53 | 90 | 1.0 | 7.0 | 0.00 | 0.00 | 0.08 | 94 | 1006.3 |
| 20260903061617 | 53 | 68 | 3.0 | 7.0 | 0.00 | 0.00 | 0.08 | 94 | 1007.1 |
| 20260903061107 | 53 | 68 | 3.0 | 6.0 | 0.00 | 0.00 | 0.08 | 94 | 1006.9 |
| 20260903060557 | 53 | 45 | 2.0 | 4.0 | 0.00 | 0.00 | 0.08 | 94 | 1006.7 |
| 20260903060047 | 53 | 68 | 2.0 | 6.0 | 0.00 | 0.00 | 0.08 | 94 | 1006.4 |
| 20260903055537 | 53 | 68 | 2.0 | 6.0 | 0.00 | 0.00 | 0.08 | 94 | 1006.3 |
| 20260903055026 | 53 | 23 | 2.0 | 9.0 | 0.00 | 0.00 | 0.08 | 93 | 1006.6 |
| 20260903054516 | 53 | 248 | 4.0 | 9.0 | 0.00 | 0.00 | 0.08 | 93 | 1007.4 |
| 20260903054006 | 53 | 68 | 3.0 | 7.0 | 0.00 | 0.00 | 0.08 | 93 | 1007.4 |
| 20260903053500 | 53 | 68 | 2.0 | 4.0 | 0.00 | 0.00 | 0.08 | 93 | 1006.7 |
| 20260903052609 | 53 | 23 | 2.0 | 6.0 | 0.07 | 0.08 | 0.08 | 93 | 1005.9 |
| 20260903052059 | 53 | 90 | 2.0 | 6.0 | 0.07 | 0.08 | 0.08 | 93 | 1006.1 |
| 20260903051548 | 53 | 68 | 2.0 | 6.0 | 0.07 | 0.08 | 0.08 | 93 | 1006.3 |
| 20260903051038 | 53 | 45 | 2.0 | 6.0 | 0.07 | 0.08 | 0.08 | 93 | 1005.8 |
| 20260903050528 | 53 | 68 | 1.0 | 4.0 | 0.07 | 0.07 | 0.07 | 92 | 1005.5 |
| 20260903050022 | 53 | 293 | 2.0 | 6.0 | 0.07 | 0.07 | 0.07 | 92 | 1006.2 |
| 20260903045508 | 53 | 23 | 2.0 | 7.0 | 0.07 | 0.07 | 0.07 | 91 | 1006.0 |
| 20260903044958 | 54 | 270 | 1.0 | 7.0 | 0.06 | 0.06 | 0.06 | 90 | 1006.0 |
| 20260903044449 | 54 | 248 | 2.0 | 7.0 | 0.05 | 0.05 | 0.05 | 89 | 1006.3 |
| 20260903043938 | 55 | 45 | 2.0 | 9.0 | 0.04 | 0.04 | 0.04 | 87 | 1006.1 |
| 20260903043427 | 55 | 23 | 2.0 | 11.0 | 0.01 | 0.01 | 0.01 | 85 | 1006.7 |
| 20260903042917 | 56 | 293 | 5.0 | 11.0 | 0.01 | 0.01 | 0.01 | 83 | 1006.9 |
| 20260903041347 | 58 | 338 | 2.0 | 15.0 | 0.01 | 0.01 | 0.01 | 76 | 1007.1 |
| 20260903040837 | 58 | 0 | 4.0 | 15.0 | 0.00 | 0.00 | 0.00 | 74 | 1006.9 |
| 20260903040326 | 59 | 0 | 3.0 | 9.0 | 0.00 | 0.00 | 0.00 | 73 | 1006.8 |
| 20260903035817 | 59 | 338 | 4.0 | 9.0 | 0.00 | 0.00 | 0.00 | 74 | 1006.7 |
| 20260903035306 | 59 | 68 | 2.0 | 8.0 | 0.00 | 0.00 | 0.00 | 74 | 1007.0 |
| 20260903034756 | 59 | 45 | 2.0 | 8.0 | 0.00 | 0.00 | 0.00 | 75 | 1006.9 |
| 20260903034246 | 59 | 158 | 4.0 | 8.0 | 0.00 | 0.00 | 0.00 | 74 | 1006.6 |
| 20260903033736 | 59 | 90 | 3.0 | 7.0 | 0.00 | 0.00 | 0.00 | 75 | 1006.3 |
| 20260903033226 | 59 | 0 | 2.0 | 8.0 | 0.00 | 0.00 | 0.00 | 75 | 1006.4 |
| 20260903032716 | 59 | 90 | 2.0 | 8.0 | 0.00 | 0.00 | 0.00 | 77 | 1006.2 |
| 20260903032205 | 59 | 45 | 2.0 | 4.0 | 0.00 | 0.00 | 0.00 | 80 | 1006.2 |
| 20260903031656 | 59 | 68 | 1.0 | 4.0 | 0.00 | 0.00 | 0.00 | 83 | 1006.1 |
| 20260903031145 | 59 | 68 | 2.0 | 6.0 | 0.00 | 0.00 | 0.00 | 83 | 1006.0 |
| 20260903030125 | 59 | 68 | 2.0 | 7.0 | 0.00 | 0.00 | 0.00 | 86 | 1006.2 |
| 20260903025614 | 59 | 45 | 1.0 | 7.0 | 0.00 | 0.00 | 0.08 | 87 | 1006.4 |
| 20260903025105 | 58 | 45 | 2.0 | 7.0 | 0.00 | 0.00 | 0.08 | 88 | 1006.6 |
| 20260903024559 | 58 | 90 | 2.0 | 6.0 | 0.00 | 0.00 | 0.08 | 91 | 1006.5 |
| 20260903024046 | 58 | 23 | 2.0 | 4.0 | 0.00 | 0.00 | 0.08 | 93 | 1006.8 |
| 20260903023014 | 58 | 45 | 1.0 | 4.0 | 0.00 | 0.08 | 0.08 | 94 | 1006.4 |
| 20260903022505 | 58 | 45 | 2.0 | 6.0 | 0.00 | 0.08 | 0.08 | 95 | 1006.6 |
| 20260903021954 | 58 | 68 | 0.0 | 7.0 | 0.00 | 0.08 | 0.08 | 95 | 1006.4 |
| 20260903021444 | 58 | 45 | 2.0 | 7.0 | 0.00 | 0.08 | 0.08 | 96 | 1006.5 |
| 20260903020935 | 58 | 45 | 2.0 | 4.0 | 0.00 | 0.08 | 0.08 | 96 | 1006.6 |
| 20260903020424 | 57 | 45 | 2.0 | 4.0 | 0.00 | 0.08 | 0.08 | 96 | 1006.7 |
| 20260903015917 | 57 | 45 | 2.0 | 4.0 | 0.00 | 0.08 | 0.08 | 96 | 1006.9 |
| 20260903015404 | 56 | 45 | 1.0 | 2.0 | 0.00 | 0.08 | 0.08 | 96 | 1006.6 |
| 20260903014854 | 56 | 0 | 0.0 | 2.0 | 0.00 | 0.08 | 0.08 | 96 | 1006.6 |
| 20260903014343 | 56 | 68 | 0.0 | 2.0 | 0.00 | 0.08 | 0.08 | 96 | 1006.6 |
| 20260903013833 | 56 | 68 | 0.0 | 0.0 | 0.00 | 0.08 | 0.08 | 96 | 1006.8 |
| 20260903013328 | 56 | 23 | 0.0 | 0.0 | 0.00 | 0.08 | 0.08 | 95 | 1006.9 |
| 20260903012813 | 56 | 0 | 0.0 | 0.0 | 0.00 | 0.08 | 0.08 | 95 | 1006.5 |
| 20260903012306 | 55 | 45 | 0.0 | 0.0 | 0.00 | 0.08 | 0.08 | 95 | 1006.5 |
| 20260903011242 | 55 | 68 | 0.0 | 2.0 | 0.00 | 0.08 | 0.08 | 95 | 1006.0 |
| 20260903010732 | 56 | 68 | 0.0 | 2.0 | 0.00 | 0.08 | 0.08 | 95 | 1005.9 |
| 20260903010223 | 56 | 135 | 0.0 | 0.0 | 0.00 | 0.08 | 0.08 | 95 | 1005.6 |
| 20260903005712 | 56 | 113 | 0.0 | 0.0 | 0.00 | 0.08 | 0.08 | 95 | 1006.2 |
| 20260903005202 | 56 | 113 | 0.0 | 0.0 | 0.01 | 0.08 | 0.08 | 95 | 1006.3 |
| 20260903004652 | 56 | 113 | 0.0 | 0.0 | 0.06 | 0.08 | 0.08 | 95 | 1006.5 |
| 20260903004142 | 56 | 113 | 0.0 | 0.0 | 0.08 | 0.08 | 0.08 | 94 | 1006.2 |
| 20260903003632 | 56 | 113 | 0.0 | 0.0 | 0.08 | 0.08 | 0.08 | 94 | 1006.4 |
| 20260903002611 | 56 | 113 | 0.0 | 0.0 | 0.08 | 0.08 | 0.08 | 94 | 1006.4 |
| 20260903002101 | 56 | 68 | 0.0 | 2.0 | 0.08 | 0.08 | 0.08 | 94 | 1006.4 |
| 20260903001551 | 56 | 68 | 0.0 | 2.0 | 0.08 | 0.08 | 0.08 | 94 | 1006.5 |
| 20260903001042 | 56 | 68 | 0.0 | 0.0 | 0.08 | 0.08 | 0.08 | 93 | 1006.7 |
| 20260903000532 | 56 | 68 | 0.0 | 0.0 | 0.08 | 0.08 | 0.08 | 93 | 1006.4 |
| 20260903000021 | 56 | 68 | 0.0 | 2.0 | 0.08 | 0.08 | 0.08 | 93 | 1006.3 |
| 20260902235511 | 56 | 68 | 0.0 | 2.0 | 0.08 | 0.08 | 0.08 | 93 | 1006.4 |
| 20260902235000 | 56 | 45 | 0.0 | 2.0 | 0.06 | 0.06 | 0.06 | 93 | 1006.4 |
| 20260902233940 | 56 | 23 | 0.0 | 2.0 | 0.00 | 0.00 | 0.00 | 94 | 1006.4 |
| 20260902233435 | 56 | 0 | 0.0 | 2.0 | 0.00 | 0.00 | 0.00 | 94 | 1006.5 |
| 20260902232919 | 56 | 158 | 0.0 | 9.0 | 0.00 | 0.00 | 0.00 | 94 | 1006.7 |
| 20260902231900 | 56 | 203 | 2.0 | 4.0 | 0.00 | 0.00 | 0.00 | 95 | 1006.3 |
| 20260902231349 | 56 | 45 | 1.0 | 7.0 | 0.00 | 0.00 | 0.00 | 96 | 1006.6 |
| 20260902230329 | 55 | 45 | 1.0 | 6.0 | 0.00 | 0.00 | 0.00 | 95 | 1005.3 |
| 20260902225818 | 55 | 293 | 1.0 | 6.0 | 0.00 | 0.00 | 0.00 | 95 | 1005.3 |
| 20260902225308 | 55 | 225 | 1.0 | 4.0 | 0.00 | 0.00 | 0.00 | 95 | 1005.2 |
| 20260902224759 | 55 | 68 | 2.0 | 4.0 | 0.00 | 0.00 | 0.00 | 95 | 1005.7 |
| 20260902224248 | 56 | 0 | 2.0 | 4.0 | 0.00 | 0.00 | 0.00 | 95 | 1005.5 |
| 20260902223739 | 56 | 68 | 2.0 | 4.0 | 0.00 | 0.00 | 0.00 | 95 | 1005.5 |
| 20260902223228 | 56 | 248 | 1.0 | 4.0 | 0.00 | 0.00 | 0.00 | 95 | 1005.8 |
| 20260902222718 | 55 | 225 | 2.0 | 4.0 | 0.00 | 0.00 | 0.00 | 95 | 1005.6 |
| 20260902222210 | 55 | 68 | 0.0 | 4.0 | 0.00 | 0.00 | 0.00 | 95 | 1005.7 |
| 20260902221659 | 55 | 68 | 1.0 | 2.0 | 0.00 | 0.00 | 0.00 | 95 | 1006.1 |
| 20260902221123 | 54 | 338 | 1.0 | 4.0 | 0.00 | 0.00 | 0.00 | 95 | 1006.1 |
| 20260902220617 | 54 | 180 | 1.0 | 2.0 | 0.00 | 0.00 | 0.00 | 95 | 1006.1 |
| 20260902220107 | 54 | 270 | 0.0 | 2.0 | 0.00 | 0.00 | 0.00 | 95 | 1006.1 |
| 20260902215046 | 54 | 270 | 1.0 | 4.0 | 0.00 | 0.00 | 0.00 | 94 | 1006.2 |
| 20260902214536 | 54 | 293 | 0.0 | 4.0 | 0.00 | 0.00 | 0.00 | 94 | 1006.2 |
| 20260902214026 | 55 | 270 | 1.0 | 4.0 | 0.00 | 0.00 | 0.00 | 94 | 1006.5 |
| 20260902213006 | 55 | 180 | 1.0 | 4.0 | 0.00 | 0.00 | 0.00 | 93 | 1007.1 |
| 20260902212455 | 55 | 113 | 0.0 | 2.0 | 0.00 | 0.00 | 0.00 | 93 | 1007.3 |
| 20260902211945 | 55 | 248 | 0.0 | 2.0 | 0.00 | 0.00 | 0.00 | 93 | 1007.2 |
| 20260902210925 | 55 | 338 | 0.0 | 2.0 | 0.00 | 0.00 | 0.00 | 92 | 1007.1 |
| 20260902210415 | 55 | 113 | 0.0 | 2.0 | 0.00 | 0.00 | 0.00 | 92 | 1007.3 |
| 20260902205905 | 55 | 248 | 0.0 | 2.0 | 0.00 | 0.00 | 0.00 | 92 | 1007.2 |
| 20260902204845 | 56 | 293 | 0.0 | 2.0 | 0.00 | 0.00 | 0.00 | 91 | 1007.1 |
| 20260902204336 | 56 | 315 | 0.0 | 4.0 | 0.00 | 0.00 | 0.00 | 91 | 1007.2 |
| 20260902203824 | 56 | 248 | 0.0 | 4.0 | 0.00 | 0.00 | 0.00 | 91 | 1007.2 |
| 20260902203314 | 57 | 135 | 1.0 | 2.0 | 0.00 | 0.00 | 0.00 | 90 | 1007.5 |
| 20260902202805 | 57 | 248 | 0.0 | 2.0 | 0.00 | 0.00 | 0.00 | 90 | 1007.5 |
| 20260902202258 | 57 | 113 | 1.0 | 2.0 | 0.00 | 0.00 | 0.00 | 89 | 1007.6 |
| 20260902201744 | 58 | 158 | 0.0 | 2.0 | 0.00 | 0.00 | 0.00 | 89 | 1007.5 |
| 20260902201233 | 58 | 270 | 0.0 | 2.0 | 0.00 | 0.00 | 0.00 | 88 | 1007.7 |
| 20260902200723 | 59 | 293 | 0.0 | 4.0 | 0.00 | 0.00 | 0.00 | 88 | 1007.3 |
| 20260902200214 | 59 | 248 | 0.0 | 4.0 | 0.00 | 0.00 | 0.00 | 88 | 1007.5 |
| 20260902195704 | 59 | 45 | 2.0 | 4.0 | 0.00 | 0.00 | 0.00 | 88 | 1007.4 |
| 20260902194643 | 58 | 113 | 2.0 | 6.0 | 0.00 | 0.00 | 0.00 | 88 | 1007.4 |
| 20260902194133 | 58 | 45 | 2.0 | 6.0 | 0.00 | 0.00 | 0.00 | 88 | 1007.4 |
| 20260902193623 | 58 | 23 | 2.0 | 7.0 | 0.00 | 0.00 | 0.00 | 88 | 1007.5 |
| 20260902193113 | 58 | 68 | 2.0 | 7.0 | 0.00 | 0.00 | 0.00 | 88 | 1007.2 |
| 20260902192053 | 58 | 45 | 3.0 | 6.0 | 0.00 | 0.00 | 0.00 | 89 | 1007.7 |
| 20260902191032 | 57 | 45 | 2.0 | 6.0 | 0.00 | 0.00 | 0.00 | 90 | 1007.7 |
| 20260902190522 | 57 | 113 | 2.0 | 6.0 | 0.00 | 0.00 | 0.00 | 91 | 1007.6 |
| 20260902190012 | 57 | 113 | 2.0 | 6.0 | 0.00 | 0.00 | 0.00 | 91 | 1007.7 |
| 20260902185502 | 56 | 135 | 2.0 | 6.0 | 0.00 | 0.00 | 0.00 | 91 | 1007.8 |
| 20260902184951 | 56 | 338 | 2.0 | 7.0 | 0.00 | 0.00 | 0.00 | 90 | 1008.0 |
| 20260902183932 | 57 | 90 | 2.0 | 11.0 | 0.00 | 0.00 | 0.00 | 89 | 1007.7 |
| 20260902183421 | 57 | 90 | 2.0 | 6.0 | 0.00 | 0.00 | 0.00 | 89 | 1007.7 |
| 20260902182912 | 58 | 68 | 2.0 | 6.0 | 0.00 | 0.00 | 0.00 | 89 | 1007.8 |
| 20260902182401 | 58 | 158 | 2.0 | 7.0 | 0.00 | 0.00 | 0.00 | 88 | 1007.8 |
| 20260902181851 | 58 | 45 | 4.0 | 9.0 | 0.00 | 0.00 | 0.00 | 88 | 1007.9 |
| 20260902180831 | 59 | 68 | 4.0 | 9.0 | 0.00 | 0.00 | 0.00 | 88 | 1008.2 |
| 20260902180320 | 58 | 90 | 3.0 | 9.0 | 0.00 | 0.00 | 0.00 | 89 | 1008.3 |
| 20260902175810 | 58 | 45 | 3.0 | 9.0 | 0.00 | 0.00 | 0.00 | 89 | 1008.4 |
| 20260902175301 | 58 | 45 | 3.0 | 9.0 | 0.00 | 0.00 | 0.00 | 89 | 1008.4 |
| 20260902174749 | 58 | 68 | 4.0 | 9.0 | 0.00 | 0.00 | 0.00 | 88 | 1008.8 |